Time,TemperatureF,DewpointF,PressureIn,WindDirection,WindDirectionDegrees,WindSpeedMPH,WindSpeedGustMPH,Humidity,HourlyPrecipIn,Conditions,Clouds,dailyrainin,SoftwareType,DateUTC
2013-09-21 00:00:00,52.9,46.9,17.72,NW,319,0.0,0.0,80,0.00,,---,0.00,VWS V14.01,2013-09-21 05:00:00,
2013-09-21 00:10:00,52.5,46.5,17.72,West,277,0.0,0.0,80,0.00,,---,0.00,VWS V14.01,2013-09-21 05:10:00,
2013-09-21 00:20:00,52.3,46.4,17.72,WNW,288,0.0,0.0,80,0.00,,---,0.00,VWS V14.01,2013-09-21 05:20:00,
2013-09-21 00:25:00,52.2,46.2,17.72,WNW,289,0.0,0.0,80,0.00,,---,0.00,VWS V14.01,2013-09-21 05:25:00,
2013-09-21 00:35:00,52.5,46.9,17.72,WNW,293,0.0,0.0,81,0.00,,---,0.00,VWS V14.01,2013-09-21 05:35:00,
2013-09-21 00:45:00,52.5,46.9,17.72,West,278,0.0,0.0,81,0.00,,---,0.00,VWS V14.01,2013-09-21 05:45:00,
2013-09-21 00:55:00,52.5,46.9,17.72,West,266,0.0,0.0,81,0.00,,---,0.00,VWS V14.01,2013-09-21 05:55:00,
2013-09-21 01:05:00,52.5,46.9,17.72,WNW,285,0.0,0.0,81,0.00,,---,0.00,VWS V14.01,2013-09-21 06:05:00,
2013-09-21 01:10:00,52.3,46.7,17.72,WNW,285,0.0,0.0,81,0.00,,---,0.00,VWS V14.01,2013-09-21 06:10:00,
2013-09-21 01:20:00,52.3,46.7,17.72,WNW,285,0.0,0.0,81,0.00,,---,0.00,VWS V14.01,2013-09-21 06:20:00,
2013-09-21 01:30:00,52.2,46.5,17.72,WNW,285,0.0,0.0,81,0.00,,---,0.00,VWS V14.01,2013-09-21 06:30:00,
2013-09-21 01:40:00,52.0,46.3,17.72,WNW,285,0.0,0.0,81,0.00,,---,0.00,VWS V14.01,2013-09-21 06:40:00,
2013-09-21 01:45:00,52.0,46.3,17.72,WNW,285,0.0,0.0,81,0.00,,---,0.00,VWS V14.01,2013-09-21 06:45:00,
2013-09-21 01:55:00,51.8,45.8,17.72,WNW,285,0.0,0.0,80,0.00,,---,0.00,VWS V14.01,2013-09-21 06:55:00,
2013-09-21 02:00:00,51.8,45.8,17.72,WNW,285,0.0,0.0,80,0.00,,---,0.00,VWS V14.01,2013-09-21 07:00:00,
2013-09-21 02:10:00,51.6,46.0,17.72,WNW,285,0.0,0.0,81,0.00,,---,0.00,VWS V14.01,2013-09-21 07:10:00,
2013-09-21 02:20:00,51.6,46.0,17.72,WNW,285,0.0,0.0,81,0.00,,---,0.00,VWS V14.01,2013-09-21 07:20:00,
2013-09-21 02:30:00,51.4,45.8,17.72,WNW,285,0.0,0.0,81,0.00,,---,0.00,VWS V14.01,2013-09-21 07:30:00,
2013-09-21 02:40:00,51.3,45.6,17.72,WNW,285,0.0,0.0,81,0.00,,---,0.00,VWS V14.01,2013-09-21 07:40:00,
2013-09-21 02:45:00,51.3,45.6,17.72,WNW,285,0.0,0.0,81,0.00,,---,0.00,VWS V14.01,2013-09-21 07:45:00,
2013-09-21 02:55:00,51.1,45.5,17.72,WNW,285,0.0,0.0,81,0.00,,---,0.00,VWS V14.01,2013-09-21 07:55:00,
2013-09-21 03:05:00,50.7,44.8,17.72,WNW,285,0.0,0.0,80,0.00,,---,0.00,VWS V14.01,2013-09-21 08:05:00,
2013-09-21 03:15:00,50.5,44.6,17.72,WNW,285,0.0,0.0,80,0.00,,---,0.00,VWS V14.01,2013-09-21 08:15:00,
2013-09-21 03:20:00,50.5,44.6,17.72,WNW,285,0.0,0.0,80,0.00,,---,0.00,VWS V14.01,2013-09-21 08:20:00,
2013-09-21 03:30:00,50.5,44.6,17.72,WNW,285,0.0,0.0,80,0.00,,---,0.00,VWS V14.01,2013-09-21 08:30:00,
2013-09-21 03:40:00,50.4,44.4,17.72,WNW,285,0.0,0.0,80,0.00,,---,0.00,VWS V14.01,2013-09-21 08:40:00,
2013-09-21 03:45:00,50.2,44.3,17.72,WNW,285,0.0,0.0,80,0.00,,---,0.00,VWS V14.01,2013-09-21 08:45:00,
2013-09-21 03:55:00,50.2,44.3,17.72,WNW,285,0.0,0.0,80,0.00,,---,0.00,VWS V14.01,2013-09-21 08:55:00,
2013-09-21 04:05:00,50.0,44.4,17.72,WNW,285,0.0,0.0,81,0.00,,---,0.00,VWS V14.01,2013-09-21 09:05:00,
2013-09-21 04:15:00,49.8,44.2,17.72,WNW,285,0.0,0.0,81,0.00,,---,0.00,VWS V14.01,2013-09-21 09:15:00,
2013-09-21 04:25:00,49.6,44.1,17.72,WNW,285,0.0,0.0,81,0.00,,---,0.00,VWS V14.01,2013-09-21 09:25:00,
2013-09-21 04:30:00,49.5,43.9,17.72,WNW,285,0.0,0.0,81,0.00,,---,0.00,VWS V14.01,2013-09-21 09:30:00,
2013-09-21 04:40:00,49.5,43.9,17.72,WNW,285,0.0,0.0,81,0.00,,---,0.00,VWS V14.01,2013-09-21 09:40:00,
2013-09-21 04:50:00,49.5,43.9,17.72,WNW,291,0.0,0.0,81,0.00,,---,0.00,VWS V14.01,2013-09-21 09:50:00,
2013-09-21 05:00:00,49.6,44.4,17.72,WNW,291,0.0,0.0,82,0.00,,---,0.00,VWS V14.01,2013-09-21 10:00:00,
2013-09-21 05:05:00,49.6,44.4,17.72,WNW,292,0.0,0.0,82,0.00,,---,0.00,VWS V14.01,2013-09-21 10:05:00,
2013-09-21 05:15:00,49.8,44.5,17.72,WNW,284,0.0,0.0,82,0.00,,---,0.00,VWS V14.01,2013-09-21 10:15:00,
2013-09-21 05:25:00,50.0,45.0,17.72,NW,320,0.0,0.0,83,0.00,,---,0.00,VWS V14.01,2013-09-21 10:25:00,
2013-09-21 05:35:00,50.2,45.2,17.72,WNW,294,0.0,0.0,83,0.00,,---,0.00,VWS V14.01,2013-09-21 10:35:00,
2013-09-21 05:40:00,50.4,45.4,17.72,NW,326,0.0,0.0,83,0.00,,---,0.00,VWS V14.01,2013-09-21 10:40:00,
2013-09-21 05:50:00,50.4,45.7,17.72,NNW,337,0.0,0.0,84,0.00,,---,0.00,VWS V14.01,2013-09-21 10:50:00,
2013-09-21 05:55:00,50.5,45.9,17.72,WNW,299,0.0,0.0,84,0.00,,---,0.00,VWS V14.01,2013-09-21 10:55:00,
2013-09-21 06:00:00,50.5,45.9,17.72,NNW,340,0.0,0.0,84,0.00,,---,0.00,VWS V14.01,2013-09-21 11:00:00,
2013-09-21 06:10:00,50.5,45.9,17.72,NNW,340,0.0,0.0,84,0.00,,---,0.00,VWS V14.01,2013-09-21 11:10:00,
2013-09-21 06:15:00,50.5,45.9,17.72,NNW,327,0.0,0.0,84,0.00,,---,0.00,VWS V14.01,2013-09-21 11:15:00,
2013-09-21 06:25:00,50.5,45.9,17.72,NW,319,0.0,0.0,84,0.00,,---,0.00,VWS V14.01,2013-09-21 11:25:00,
2013-09-21 06:35:00,50.5,45.9,17.72,WNW,288,0.0,0.0,84,0.00,,---,0.00,VWS V14.01,2013-09-21 11:35:00,
2013-09-21 06:45:00,50.5,45.9,17.72,WSW,258,0.0,0.0,84,0.00,,---,0.00,VWS V14.01,2013-09-21 11:45:00,
2013-09-21 06:50:00,50.5,45.9,17.72,WNW,286,2.2,2.2,84,0.00,,---,0.00,VWS V14.01,2013-09-21 11:50:00,
2013-09-21 07:00:00,50.4,45.7,17.72,NNW,334,0.0,0.0,84,0.00,,---,0.00,VWS V14.01,2013-09-21 12:00:00,
2013-09-21 07:10:00,50.4,45.7,17.72,NNW,334,0.0,0.0,84,0.00,,---,0.00,VWS V14.01,2013-09-21 12:10:00,
2013-09-21 07:20:00,50.4,45.7,17.72,NW,325,0.0,0.0,84,0.00,,---,0.00,VWS V14.01,2013-09-21 12:20:00,
2013-09-21 07:25:00,50.2,45.5,17.72,West,272,0.0,0.0,84,0.00,,---,0.00,VWS V14.01,2013-09-21 12:25:00,
2013-09-21 07:35:00,50.2,45.5,17.72,NW,309,0.0,0.0,84,0.00,,---,0.00,VWS V14.01,2013-09-21 12:35:00,
2013-09-21 07:40:00,50.2,45.5,17.72,NW,310,0.0,0.0,84,0.00,,---,0.00,VWS V14.01,2013-09-21 12:40:00,
2013-09-21 07:50:00,49.8,45.2,17.72,NNW,333,0.0,0.0,84,0.00,,---,0.00,VWS V14.01,2013-09-21 12:50:00,
2013-09-21 08:00:00,49.8,45.2,17.72,NNW,344,0.0,0.0,84,0.00,,---,0.00,VWS V14.01,2013-09-21 13:00:00,
2013-09-21 08:10:00,49.6,45.0,17.72,NW,322,0.0,0.0,84,0.00,,---,0.00,VWS V14.01,2013-09-21 13:10:00,
2013-09-21 08:20:00,49.5,44.8,17.72,NNW,348,0.0,0.0,84,0.00,,---,0.00,VWS V14.01,2013-09-21 13:20:00,
2013-09-21 08:30:00,49.6,44.7,17.72,NNW,340,2.2,2.2,83,0.00,,---,0.00,VWS V14.01,2013-09-21 13:30:00,
2013-09-21 08:40:00,50.0,45.0,17.72,NW,306,0.0,0.0,83,0.00,,---,0.00,VWS V14.01,2013-09-21 13:40:00,
2013-09-21 08:45:00,50.2,45.2,17.72,NNW,334,2.7,2.7,83,0.00,,---,0.00,VWS V14.01,2013-09-21 13:45:00,
2013-09-21 08:55:00,50.5,45.6,17.72,NNW,340,3.1,3.1,83,0.00,,---,0.00,VWS V14.01,2013-09-21 13:55:00,
2013-09-21 09:00:00,50.7,45.4,17.72,NW,311,3.1,3.1,82,0.00,,---,0.00,VWS V14.01,2013-09-21 14:00:00,
2013-09-21 09:05:00,50.7,45.4,17.72,West,275,2.7,2.7,82,0.00,,---,0.00,VWS V14.01,2013-09-21 14:05:00,
2013-09-21 09:15:00,51.1,45.5,17.72,NW,325,0.0,0.0,81,0.00,,---,0.00,VWS V14.01,2013-09-21 14:15:00,
2013-09-21 09:20:00,51.1,45.1,17.72,WNW,287,0.0,0.0,80,0.00,,---,0.00,VWS V14.01,2013-09-21 14:20:00,
2013-09-21 09:30:00,51.6,45.3,17.72,NW,310,0.0,0.0,79,0.00,,---,0.00,VWS V14.01,2013-09-21 14:30:00,
2013-09-21 09:40:00,51.6,44.7,17.72,West,274,2.7,2.7,77,0.00,,---,0.00,VWS V14.01,2013-09-21 14:40:00,
2013-09-21 09:50:00,51.8,44.1,17.72,WSW,237,2.7,2.7,75,0.00,,---,0.00,VWS V14.01,2013-09-21 14:50:00,
2013-09-21 09:55:00,51.8,44.1,17.72,NW,310,0.0,0.0,75,0.00,,---,0.00,VWS V14.01,2013-09-21 14:55:00,
2013-09-21 10:05:00,52.2,44.5,17.72,NW,326,0.0,0.0,75,0.00,,---,0.00,VWS V14.01,2013-09-21 15:05:00,
2013-09-21 10:15:00,52.3,44.0,17.72,NW,325,2.2,2.2,73,0.00,,---,0.00,VWS V14.01,2013-09-21 15:15:00,
2013-09-21 10:25:00,52.7,43.9,17.72,NNW,327,3.6,3.6,72,0.00,,---,0.00,VWS V14.01,2013-09-21 15:25:00,
2013-09-21 10:35:00,53.4,45.0,17.72,North,353,3.6,3.6,73,0.00,,---,0.00,VWS V14.01,2013-09-21 15:35:00,
2013-09-21 10:40:00,53.4,44.6,17.72,West,272,0.0,0.0,72,0.00,,---,0.00,VWS V14.01,2013-09-21 15:40:00,
2013-09-21 10:50:00,53.4,43.9,17.72,West,260,2.2,2.2,70,0.00,,---,0.00,VWS V14.01,2013-09-21 15:50:00,
2013-09-21 11:00:00,53.4,43.5,17.72,NW,324,0.0,0.0,69,0.00,,---,0.00,VWS V14.01,2013-09-21 16:00:00,
2013-09-21 11:05:00,53.4,43.1,17.72,NNW,327,0.0,0.0,68,0.00,,---,0.00,VWS V14.01,2013-09-21 16:05:00,
2013-09-21 12:55:00,55.9,41.8,17.72,North,357,0.0,0.0,59,0.00,,---,0.00,VWS V14.01,2013-09-21 17:55:00,
2013-09-21 13:00:00,56.1,42.4,17.72,NW,324,2.7,2.7,60,0.00,,---,0.00,VWS V14.01,2013-09-21 18:00:00,
2013-09-21 13:10:00,55.8,41.2,17.72,WSW,252,0.0,0.0,58,0.00,,---,0.00,VWS V14.01,2013-09-21 18:10:00,
2013-09-21 13:20:00,55.6,41.5,17.72,WSW,255,2.7,2.7,59,0.00,,---,0.00,VWS V14.01,2013-09-21 18:20:00,
2013-09-21 13:30:00,56.3,41.7,17.72,SSW,211,2.2,2.2,58,0.00,,---,0.00,VWS V14.01,2013-09-21 18:30:00,
2013-09-21 13:35:00,56.5,41.5,17.72,NW,312,2.2,2.2,57,0.00,,---,0.00,VWS V14.01,2013-09-21 18:35:00,
2013-09-21 13:45:00,56.8,42.2,17.72,WSW,243,0.0,0.0,58,0.00,,---,0.00,VWS V14.01,2013-09-21 18:45:00,
2013-09-21 13:50:00,57.4,41.8,17.72,WSW,251,2.2,2.2,56,0.00,,---,0.00,VWS V14.01,2013-09-21 18:50:00,
2013-09-21 13:55:00,57.6,42.0,17.72,West,265,2.7,2.7,56,0.00,,---,0.00,VWS V14.01,2013-09-21 18:55:00,
2013-09-21 14:05:00,57.6,41.1,17.72,West,279,3.6,3.6,54,0.00,,---,0.00,VWS V14.01,2013-09-21 19:05:00,
2013-09-21 14:10:00,57.6,41.5,17.72,WSW,251,3.6,3.6,55,0.00,,---,0.00,VWS V14.01,2013-09-21 19:10:00,
2013-09-21 14:20:00,57.9,42.3,17.72,WSW,244,4.0,4.0,56,0.00,,---,0.00,VWS V14.01,2013-09-21 19:20:00,
2013-09-21 14:25:00,58.1,41.6,17.72,SW,224,0.0,0.0,54,0.00,,---,0.00,VWS V14.01,2013-09-21 19:25:00,
2013-09-21 14:35:00,58.8,42.7,17.72,WNW,297,3.6,3.6,55,0.00,,---,0.00,VWS V14.01,2013-09-21 19:35:00,
2013-09-21 14:45:00,59.2,42.1,17.72,NNE,14,3.6,3.6,53,0.00,,---,0.00,VWS V14.01,2013-09-21 19:45:00,
2013-09-21 14:55:00,58.8,41.2,17.72,NW,308,2.7,2.7,52,0.00,,---,0.00,VWS V14.01,2013-09-21 19:55:00,
2013-09-21 15:05:00,59.2,42.6,17.72,NW,318,2.2,2.2,54,0.00,,---,0.00,VWS V14.01,2013-09-21 20:05:00,
2013-09-21 15:10:00,59.5,42.9,17.72,West,271,0.0,0.0,54,0.00,,---,0.00,VWS V14.01,2013-09-21 20:10:00,
2013-09-21 15:20:00,59.4,42.2,17.72,SW,221,4.0,4.0,53,0.00,,---,0.00,VWS V14.01,2013-09-21 20:20:00,
2013-09-21 15:25:00,59.4,40.7,17.72,NNW,341,3.6,3.6,50,0.00,,---,0.00,VWS V14.01,2013-09-21 20:25:00,
2013-09-21 15:30:00,59.5,41.9,17.72,West,275,0.0,0.0,52,0.00,,---,0.00,VWS V14.01,2013-09-21 20:30:00,
2013-09-21 15:35:00,59.4,41.2,17.72,WNW,290,3.1,3.1,51,0.00,,---,0.00,VWS V14.01,2013-09-21 20:35:00,
2013-09-21 15:40:00,59.4,41.2,17.72,WNW,283,0.0,0.0,51,0.00,,---,0.00,VWS V14.01,2013-09-21 20:40:00,
2013-09-21 15:50:00,59.9,42.2,17.72,West,279,4.0,4.0,52,0.00,,---,0.00,VWS V14.01,2013-09-21 20:50:00,
2013-09-21 15:55:00,59.9,41.8,17.72,SSW,200,0.0,0.0,51,0.00,,---,0.00,VWS V14.01,2013-09-21 20:55:00,
2013-09-21 16:05:00,60.1,41.9,17.72,WSW,254,4.0,4.0,51,0.00,,---,0.00,VWS V14.01,2013-09-21 21:05:00,
2013-09-21 16:10:00,60.3,42.1,17.72,West,281,0.0,0.0,51,0.00,,---,0.00,VWS V14.01,2013-09-21 21:10:00,
2013-09-21 16:15:00,60.1,41.4,17.72,NW,322,2.7,2.7,50,0.00,,---,0.00,VWS V14.01,2013-09-21 21:15:00,
2013-09-21 16:25:00,59.9,41.2,17.72,West,262,2.7,2.7,50,0.00,,---,0.00,VWS V14.01,2013-09-21 21:25:00,
2013-09-21 16:30:00,59.9,41.2,17.72,NNW,336,2.7,2.7,50,0.00,,---,0.00,VWS V14.01,2013-09-21 21:30:00,
2013-09-21 16:40:00,59.9,42.2,17.72,NW,311,0.0,0.0,52,0.00,,---,0.00,VWS V14.01,2013-09-21 21:40:00,
2013-09-21 16:50:00,59.9,41.8,17.72,SW,231,0.0,0.0,51,0.00,,---,0.00,VWS V14.01,2013-09-21 21:50:00,
2013-09-21 17:00:00,60.3,43.1,17.72,WSW,256,2.7,2.7,53,0.00,,---,0.00,VWS V14.01,2013-09-21 22:00:00,
2013-09-21 17:10:00,60.3,42.1,17.72,WNW,302,0.0,0.0,51,0.00,,---,0.00,VWS V14.01,2013-09-21 22:10:00,
2013-09-21 17:16:00,60.1,41.9,17.72,NW,321,0.0,0.0,51,0.00,,---,0.00,VWS V14.01,2013-09-21 22:16:00,
2013-09-21 17:25:00,59.9,42.2,17.72,NW,311,0.0,0.0,52,0.00,,---,0.00,VWS V14.01,2013-09-21 22:25:00,
2013-09-21 17:30:00,59.9,41.8,17.72,WNW,289,0.0,0.0,51,0.00,,---,0.00,VWS V14.01,2013-09-21 22:30:00,
2013-09-21 17:35:00,59.9,42.2,17.72,SSE,148,0.0,0.0,52,0.00,,---,0.00,VWS V14.01,2013-09-21 22:35:00,
2013-09-21 17:45:00,59.7,42.1,17.72,WSW,237,0.0,0.0,52,0.00,,---,0.00,VWS V14.01,2013-09-21 22:45:00,
2013-09-21 17:50:00,59.7,42.6,17.72,NW,323,0.0,0.0,53,0.00,,---,0.00,VWS V14.01,2013-09-21 22:50:00,
2013-09-21 18:00:00,59.7,42.6,17.72,NW,325,0.0,0.0,53,0.00,,---,0.00,VWS V14.01,2013-09-21 23:00:00,
2013-09-21 18:10:00,59.5,43.4,17.72,NW,325,0.0,0.0,55,0.00,,---,0.00,VWS V14.01,2013-09-21 23:10:00,
2013-09-21 18:15:00,59.4,43.2,17.72,NW,325,0.0,0.0,55,0.00,,---,0.00,VWS V14.01,2013-09-21 23:15:00,
2013-09-21 18:25:00,59.0,43.8,17.72,NW,325,0.0,0.0,57,0.00,,---,0.00,VWS V14.01,2013-09-21 23:25:00,
2013-09-21 18:35:00,59.2,44.9,17.72,NW,325,0.0,0.0,59,0.00,,---,0.00,VWS V14.01,2013-09-21 23:35:00,
2013-09-21 18:40:00,59.0,44.3,17.72,NW,325,0.0,0.0,58,0.00,,---,0.00,VWS V14.01,2013-09-21 23:40:00,
2013-09-21 18:50:00,58.3,44.0,17.72,NW,325,0.0,0.0,59,0.00,,---,0.00,VWS V14.01,2013-09-21 23:50:00,
2013-09-21 19:00:00,57.9,44.1,17.72,NW,325,0.0,0.0,60,0.00,,---,0.00,VWS V14.01,2013-09-22 00:00:00,
2013-09-21 19:10:00,57.7,44.0,17.72,NW,325,0.0,0.0,60,0.00,,---,0.00,VWS V14.01,2013-09-22 00:10:00,
2013-09-21 19:20:00,57.4,44.1,17.72,NW,325,0.0,0.0,61,0.00,,---,0.00,VWS V14.01,2013-09-22 00:20:00,
2013-09-21 19:25:00,57.2,43.9,17.72,NW,325,0.0,0.0,61,0.00,,---,0.00,VWS V14.01,2013-09-22 00:25:00,
2013-09-21 19:35:00,57.2,44.3,17.72,NW,325,0.0,0.0,62,0.00,,---,0.00,VWS V14.01,2013-09-22 00:35:00,
2013-09-21 19:45:00,57.0,44.6,17.72,NW,325,0.0,0.0,63,0.00,,---,0.00,VWS V14.01,2013-09-22 00:45:00,
2013-09-21 19:55:00,56.3,44.3,17.72,NW,325,0.0,0.0,64,0.00,,---,0.00,VWS V14.01,2013-09-22 00:55:00,
2013-09-21 20:05:00,56.1,44.9,17.72,NW,325,0.0,0.0,66,0.00,,---,0.00,VWS V14.01,2013-09-22 01:05:00,
2013-09-21 20:10:00,56.1,44.9,17.72,NW,325,0.0,0.0,66,0.00,,---,0.00,VWS V14.01,2013-09-22 01:10:00,
2013-09-21 20:20:00,55.8,44.6,17.72,NW,325,0.0,0.0,66,0.00,,---,0.00,VWS V14.01,2013-09-22 01:20:00,
2013-09-21 20:30:00,55.0,44.3,17.72,NW,325,0.0,0.0,67,0.00,,---,0.00,VWS V14.01,2013-09-22 01:30:00,
2013-09-21 20:35:00,54.9,44.1,17.72,NW,325,0.0,0.0,67,0.00,,---,0.00,VWS V14.01,2013-09-22 01:35:00,
2013-09-21 20:45:00,54.5,44.2,17.72,NW,325,0.0,0.0,68,0.00,,---,0.00,VWS V14.01,2013-09-22 01:45:00,
2013-09-21 20:55:00,54.5,44.2,17.72,NW,325,0.0,0.0,68,0.00,,---,0.00,VWS V14.01,2013-09-22 01:55:00,
2013-09-21 21:00:00,54.5,44.2,17.72,NW,325,0.0,0.0,68,0.00,,---,0.00,VWS V14.01,2013-09-22 02:00:00,
2013-09-21 21:05:00,54.3,44.0,17.72,NW,325,0.0,0.0,68,0.00,,---,0.00,VWS V14.01,2013-09-22 02:05:00,
2013-09-21 21:15:00,54.0,44.0,17.72,NW,325,0.0,0.0,69,0.00,,---,0.00,VWS V14.01,2013-09-22 02:15:00,
2013-09-21 21:20:00,54.0,44.0,17.72,NW,325,0.0,0.0,69,0.00,,---,0.00,VWS V14.01,2013-09-22 02:20:00,
2013-09-21 21:30:00,53.6,43.7,17.72,NW,325,0.0,0.0,69,0.00,,---,0.00,VWS V14.01,2013-09-22 02:30:00,
2013-09-21 21:40:00,53.2,43.7,17.72,NW,325,0.0,0.0,70,0.00,,---,0.00,VWS V14.01,2013-09-22 02:40:00,
2013-09-21 21:45:00,53.2,43.7,17.72,NW,325,0.0,0.0,70,0.00,,---,0.00,VWS V14.01,2013-09-22 02:45:00,
2013-09-21 21:55:00,53.1,43.5,17.72,NW,325,0.0,0.0,70,0.00,,---,0.00,VWS V14.01,2013-09-22 02:55:00,
2013-09-21 22:05:00,52.3,42.9,17.72,NW,325,0.0,0.0,70,0.00,,---,0.00,VWS V14.01,2013-09-22 03:05:00,
2013-09-21 22:15:00,52.3,43.2,17.72,NW,325,0.0,0.0,71,0.00,,---,0.00,VWS V14.01,2013-09-22 03:15:00,
2013-09-21 22:20:00,52.2,42.7,17.72,NW,325,0.0,0.0,70,0.00,,---,0.00,VWS V14.01,2013-09-22 03:20:00,
2013-09-21 22:30:00,51.4,42.7,17.72,NW,325,0.0,0.0,72,0.00,,---,0.00,VWS V14.01,2013-09-22 03:30:00,
2013-09-21 22:40:00,51.3,42.9,17.72,NW,325,0.0,0.0,73,0.00,,---,0.00,VWS V14.01,2013-09-22 03:40:00,
2013-09-21 22:45:00,51.1,42.7,17.72,NW,325,0.0,0.0,73,0.00,,---,0.00,VWS V14.01,2013-09-22 03:45:00,
2013-09-21 22:50:00,50.5,42.2,17.72,NW,325,0.0,0.0,73,0.00,,---,0.00,VWS V14.01,2013-09-22 03:50:00,
2013-09-21 23:00:00,50.5,42.2,17.72,NW,325,0.0,0.0,73,0.00,,---,0.00,VWS V14.01,2013-09-22 04:00:00,
2013-09-21 23:05:00,50.5,42.6,17.72,NW,325,0.0,0.0,74,0.00,,---,0.00,VWS V14.01,2013-09-22 04:05:00,
2013-09-21 23:15:00,50.5,42.6,17.72,NW,325,0.0,0.0,74,0.00,,---,0.00,VWS V14.01,2013-09-22 04:15:00,
2013-09-21 23:20:00,50.5,42.6,17.72,NW,325,0.0,0.0,74,0.00,,---,0.00,VWS V14.01,2013-09-22 04:20:00,
2013-09-21 23:25:00,50.2,42.2,17.72,NW,325,0.0,0.0,74,0.00,,---,0.00,VWS V14.01,2013-09-22 04:25:00,
2013-09-21 23:35:00,50.2,42.2,17.72,NW,325,0.0,0.0,74,0.00,,---,0.00,VWS V14.01,2013-09-22 04:35:00,
2013-09-21 23:40:00,50.2,42.2,17.72,NW,325,0.0,0.0,74,0.00,,---,0.00,VWS V14.01,2013-09-22 04:40:00,
2013-09-21 23:50:00,50.2,42.6,17.72,NW,325,0.0,0.0,75,0.00,,---,0.00,VWS V14.01,2013-09-22 04:50:00,